Location: Boiro
(42.6475°N, 8.8834°W)
Time: 01:31:29
(UTC+01:00)

Explorer 7 - Pass Details

Date: 03 December 2021
Orbit: 483 x 674 km, 50.3° (Epoch: 23 January)

Event Time Altitude Azimuth Distance (km) Brightness Sun altitude
Rises 12:49:58 0° 301° (WNW) 2,626 9.9 24.7°
Reaches altitude 10° 12:52:12 10° 303° (WNW) 1,714 9.0 24.7°
Maximum altitude 12:56:04 76° 29° (NNE) 510 6.9 24.8°
Drops below altitude 10° 12:59:48 10° 116° (ESE) 1,660 9.8 24.9°
Sets 13:01:57 0° 118° (ESE) 2,534 10.7 25.0°
